This demonstration page uses our WeatherBlox Daily Observations layout. Learn more.

Left ArrowRight Arrow

39.92423, -83.80882

Hourly Observations for July 21, 2022

Temp ( °F °C ) Dew Point ( °F °C ) Humidity (%) Winds ( mph kmh ) Pressure ( in mb ) Visibility ( mi km ) Precip ( " mm )
12:56 am 00:56 Cloudy 76 24.4 73 22.8 91 91 W 7 11 29.71 1006 10 16 0.00 0.00
1:56 am 01:56 Clear 73 23 N/A N/A WNW 7 11 29.71 1006 10 16 0.00 0.00
2:56 am 02:56 Clear 72 22 N/A N/A WNW 7 11 29.70 1006 10 16 0.00 0.00
3:56 am 03:56 Clear 70 21 N/A N/A WSW 7 11 29.73 1007 10 16 0.00 0.00
4:56 am 04:56 Clear 70 21 N/A N/A WSW 7 11 29.74 1007 10 16 0.00 0.00
5:56 am 05:56 Clear 70 21 N/A N/A WSW 7 11 29.76 1008 10 16 0.00 0.00
6:56 am 06:56 Sunny 70 21 N/A N/A WSW 6 9 29.78 1009 8 13 0.00 0.00
7:56 am 07:56 Sunny 72 22 N/A N/A WSW 6 9 29.79 1009 10 16 0.00 0.00
8:56 am 08:56 Sunny 76 24.4 73 22.8 91 91 W 8 13 29.81 1010 10 16 0.00 0.00
9:56 am 09:56 Mostly Cloudy 78 25.6 73 22.8 85 85 W 7 11 29.82 1010 10 16 0.00 0.00
10:56 am 10:56 Mostly Sunny 80 26.7 73 22.8 79 79 W 8 13 29.82 1010 10 16 0.00 0.00
11:56 am 11:56 Mostly Sunny 83 28.3 71 21.7 67 67 W 12 19 29.83 1010 10 16 0.00 0.00
12:56 pm 12:56 Partly Cloudy 84 28.9 70 21.1 63 63 W 13 20 29.82 1010 10 16 0.00 0.00
1:56 pm 13:56 Mostly Cloudy 85 29.4 69 20.6 59 59 W 14 22 29.83 1010 10 16 0.00 0.00
2:56 pm 14:56 Mostly Sunny 86 30 68 20 55 55 W 14 22 29.83 1010 10 16 0.00 0.00
3:56 pm 15:56 Sunny 86 30 67 19.4 53 53 W 13 20 29.84 1010 10 16 0.00 0.00
4:56 pm 16:56 Sunny 86 30 67 19.4 53 53 WNW 10 17 29.84 1010 10 16 0.00 0.00
5:56 pm 17:56 Sunny 86 30 65 18.3 49 49 WNW 10 17 29.84 1011 10 16 0.00 0.00
6:56 pm 18:56 Sunny 84 28.9 66 18.9 55 55 WNW 8 13 29.84 1011 10 16 0.00 0.00
7:56 pm 19:56 Sunny 81 27.2 68 20 65 65 W 5 7 29.85 1011 10 16 0.00 0.00
8:56 pm 20:56 Sunny 74 23.3 74 23.3 100 100 WSW 3 6 29.86 1011 10 16 0.00 0.00
9:56 pm 21:56 Clear 72 22.2 72 22.2 100 100 Calm 29.86 1011 10 16 0.00 0.00
10:56 pm 22:56 Clear 70 21.1 70 21.1 100 100 SW 6 9 29.88 1012 10 16 0.00 0.00
11:56 pm 23:56 Clear 70 21 N/A N/A SW 7 11 29.90 1012 10 16 0.00 0.00

Powered by AerisWeather